Perry, IA

7:58 AM CDT on July 23, 2017 (GMT -0500)
Perry Municipal

Weather History for KPRO - March, 2014

Change the Weather History Date:

Thursday, March 20, 2014

  Actual Average Record
Temperature  
Mean Temperature 41 °F -  
Max Temperature 54 °F 48 °F 78 °F (1976)
Min Temperature 28 °F 28 °F 5 °F (1951)
Degree Days  
Heating Degree Days 24    
Moisture  
Dew Point 29 °F    
Average Humidity 67    
Maximum Humidity 92    
Minimum Humidity 37    
Precipitation  
Precipitation 0.00 in - - ()
Sea Level Pressure  
Sea Level Pressure 29.97 in    
Wind  
Wind Speed 7 mph (East)    
Max Wind Speed 14 mph    
Max Gust Speed 22 mph    
Visibility 10 miles    
Events      
Averages and records for this station are not official NWS values.
T = Trace of Precipitation, MM = Missing Value Source: NWS Daily Summary

Daily Weather History Graph

Daily Weather History Graph

Search for Another Location

Airport or City:

Trip Planner

Search our weather history database for the weather conditions in past years. The results will help you decide how hot, cold, wet, or windy it might be!

Date:

Astronomy

Mar. 20, 2014 Rise Set
Actual Time 7:19 AM CDT 7:28 PM CDT
Civil Twilight 6:52 AM CDT 7:56 PM CDT
Nautical Twilight 6:19 AM CDT 8:29 PM CDT
Astronomical Twilight 5:46 AM CDT 9:02 PM CDT
Moon 11:53 PM CDT (3/20) 9:23 AM CDT (3/20)
Length of Visible Light 13h 04m
Length of Day
12h 08m
Waning Gibbous, 84% of the Moon is Illuminated
Mar 20
Waning Gibbous
Mar 23
Last Quarter
Mar 30
New
Apr 7
First Quarter
Apr 15
Full

Hourly Weather History & Observations

Time (CDT) Temp. Windchill Dew Point Humidity Pressure Visibility Wind Dir Wind Speed Gust Speed Precip Events Conditions
12:15 AM 31.6 °F 23.7 °F 26.2 °F 80% 30.02 in 10.0 mi WSW 9.2 mph - N/A   Scattered Clouds
12:35 AM 33.3 °F 25.7 °F 26.6 °F 77% 30.02 in 10.0 mi West 9.2 mph - N/A   Clear
12:55 AM 32.2 °F 25.0 °F 27.3 °F 82% 30.02 in 10.0 mi West 8.1 mph - N/A   Scattered Clouds
1:15 AM 32.0 °F 24.2 °F 27.1 °F 82% 30.02 in 10.0 mi West 9.2 mph - N/A   Clear
1:35 AM 32.4 °F 25.3 °F 27.3 °F 82% 30.02 in 10.0 mi West 8.1 mph - N/A   Clear
1:55 AM 32.2 °F 24.4 °F 27.3 °F 82% 30.02 in 10.0 mi West 9.2 mph - N/A   Clear
2:15 AM 32.0 °F 24.2 °F 27.3 °F 83% 30.02 in 10.0 mi West 9.2 mph - N/A   Clear
2:35 AM 32.0 °F 24.8 °F 27.3 °F 83% 30.02 in 10.0 mi West 8.1 mph - N/A   Clear
2:55 AM 32.0 °F 24.2 °F 27.5 °F 83% 30.03 in 10.0 mi West 9.2 mph - N/A   Clear
3:15 AM 32.0 °F 27.5 °F 27.3 °F 83% 30.02 in 10.0 mi WNW 4.6 mph - N/A   Clear
3:35 AM 32.0 °F 25.6 °F 27.5 °F 83% 30.02 in 10.0 mi WNW 6.9 mph - N/A   Clear
3:55 AM 31.3 °F 25.6 °F 26.8 °F 83% 30.03 in 10.0 mi WNW 5.8 mph - N/A   Clear
4:15 AM 31.1 °F 24.5 °F 26.8 °F 84% 30.03 in 10.0 mi West 6.9 mph - N/A   Clear
4:35 AM 31.6 °F 26.0 °F 27.0 °F 83% 30.03 in 10.0 mi WNW 5.8 mph - N/A   Clear
4:55 AM 30.9 °F 26.2 °F 26.4 °F 83% 30.03 in 10.0 mi WNW 4.6 mph - N/A   Clear
5:15 AM 30.9 °F 26.2 °F 26.2 °F 83% 30.03 in 10.0 mi NW 4.6 mph - N/A   Clear
5:35 AM 30.4 °F 25.6 °F 26.4 °F 85% 30.04 in 10.0 mi WNW 4.6 mph - N/A   Clear
5:55 AM 30.0 °F 26.5 °F 25.9 °F 85% 30.04 in 10.0 mi NNW 3.5 mph - N/A   Mostly Cloudy
6:15 AM 30.7 °F 26.0 °F 27.1 °F 86% 30.03 in 10.0 mi North 4.6 mph - N/A   Mostly Cloudy
6:35 AM 31.8 °F - 26.6 °F 81% 30.03 in 10.0 mi Calm Calm - N/A   Scattered Clouds
6:55 AM 28.4 °F - 25.5 °F 89% 30.03 in 10.0 mi Calm Calm - N/A   Mostly Cloudy
7:15 AM 29.1 °F - 26.4 °F 90% 30.03 in 10.0 mi Calm Calm - N/A   Scattered Clouds
7:35 AM 28.8 °F - 26.2 °F 90% 30.04 in 10.0 mi Calm Calm - N/A   Clear
7:55 AM 29.8 °F - 27.3 °F 90% 30.03 in 10.0 mi Calm Calm - N/A   Clear
8:15 AM 29.8 °F - 27.7 °F 92% 30.04 in 10.0 mi Calm Calm - N/A   Scattered Clouds
8:35 AM 30.9 °F - 28.6 °F 91% 30.03 in 10.0 mi Calm Calm - N/A   Mostly Cloudy
8:55 AM 31.6 °F - 28.9 °F 90% 30.03 in 10.0 mi Calm Calm - N/A   Mostly Cloudy
9:15 AM 33.1 °F - 29.7 °F 87% 30.03 in 10.0 mi Calm Calm - N/A   Clear
9:35 AM 35.6 °F 32.8 °F 30.9 °F 83% 30.03 in 10.0 mi East 3.5 mph - N/A   Clear
9:55 AM 37.6 °F 35.1 °F 31.8 °F 80% 30.04 in 10.0 mi ESE 3.5 mph - N/A   Clear
10:15 AM 39.0 °F 34.8 °F 32.7 °F 78% 30.03 in 10.0 mi ESE 5.8 mph - N/A   Clear
10:35 AM 40.3 °F 35.5 °F 33.3 °F 76% 30.03 in 10.0 mi ESE 6.9 mph - N/A   Clear
10:55 AM 41.7 °F 38.8 °F 33.4 °F 72% 30.03 in 10.0 mi ESE 4.6 mph - N/A   Clear
11:15 AM 43.2 °F 39.7 °F 32.9 °F 67% 30.02 in 10.0 mi SE 5.8 mph - N/A   Clear
11:35 AM 44.4 °F 40.5 °F 32.2 °F 62% 30.01 in 10.0 mi East 6.9 mph - N/A   Clear
11:55 AM 45.0 °F 40.6 °F 31.6 °F 60% 30.00 in 10.0 mi East 8.1 mph - N/A   Clear
12:15 PM 47.3 °F - 32.7 °F 57% 29.99 in 10.0 mi ESE 8.1 mph - N/A   Clear
12:35 PM 47.8 °F - 32.4 °F 55% 29.99 in 10.0 mi ESE 8.1 mph - N/A   Clear
12:55 PM 48.4 °F - 29.5 °F 48% 29.98 in 10.0 mi ESE 10.4 mph - N/A   Clear
1:15 PM 50.2 °F - 31.1 °F 48% 29.97 in 10.0 mi SE 9.2 mph - N/A   Clear
1:35 PM 50.4 °F - 29.8 °F 45% 29.96 in 10.0 mi East 9.2 mph - N/A   Clear
1:55 PM 51.4 °F - 28.6 °F 41% 29.95 in 10.0 mi ESE 10.4 mph - N/A   Clear
2:15 PM 52.9 °F - 28.8 °F 40% 29.93 in 10.0 mi East 10.4 mph - N/A   Clear
2:35 PM 53.4 °F - 27.9 °F 37% 29.92 in 10.0 mi ESE 8.1 mph 21.9 mph N/A   Clear
2:55 PM 53.2 °F - 29.7 °F 40% 29.92 in 10.0 mi East 11.5 mph 19.6 mph N/A   Clear
3:15 PM 53.4 °F - 28.2 °F 38% 29.91 in 10.0 mi ESE 10.4 mph - N/A   Clear
3:35 PM 54.0 °F - 29.1 °F 39% 29.90 in 10.0 mi East 13.8 mph 17.3 mph N/A   Clear
3:55 PM 53.4 °F - 28.2 °F 38% 29.90 in 10.0 mi East 10.4 mph 17.3 mph N/A   Clear
4:15 PM 52.9 °F - 28.4 °F 39% 29.89 in 10.0 mi East 9.2 mph 17.3 mph N/A   Clear
4:35 PM 53.6 °F - 28.9 °F 39% 29.90 in 10.0 mi East 11.5 mph - N/A   Clear
4:55 PM 53.4 °F - 29.1 °F 39% 29.90 in 10.0 mi ESE 11.5 mph - N/A   Clear
5:15 PM 53.8 °F - 29.5 °F 39% 29.89 in 10.0 mi East 12.7 mph - N/A   Clear
5:35 PM 54.3 °F - 29.7 °F 39% 29.89 in 10.0 mi East 12.7 mph - N/A   Clear
5:55 PM 53.8 °F - 29.8 °F 40% 29.88 in 10.0 mi East 11.5 mph - N/A   Clear
6:15 PM 53.1 °F - 28.9 °F 40% 29.88 in 10.0 mi East 13.8 mph - N/A   Clear
6:35 PM 52.9 °F - 29.7 °F 41% 29.88 in 10.0 mi East 11.5 mph - N/A   Clear
6:55 PM 51.6 °F - 29.5 °F 43% 29.88 in 10.0 mi East 9.2 mph - N/A   Clear
7:15 PM 50.2 °F - 30.2 °F 46% 29.88 in 10.0 mi East 10.4 mph - N/A   Clear
7:35 PM 48.7 °F - 30.0 °F 48% 29.88 in 10.0 mi East 11.5 mph - N/A   Clear
7:55 PM 47.7 °F - 31.3 °F 53% 29.88 in 10.0 mi East 10.4 mph - N/A   Clear
8:15 PM 46.4 °F 41.5 °F 30.9 °F 55% 29.88 in 10.0 mi East 10.4 mph - N/A   Clear
8:35 PM 45.7 °F 40.6 °F 31.1 °F 57% 29.89 in 10.0 mi East 10.4 mph - N/A   Clear
8:55 PM 44.4 °F 39.0 °F 30.7 °F 59% 29.89 in 10.0 mi East 10.4 mph - N/A   Clear
9:15 PM 44.2 °F 38.8 °F 31.1 °F 60% 29.90 in 10.0 mi East 10.4 mph - N/A   Clear
9:35 PM 43.3 °F 37.2 °F 31.3 °F 62% 29.90 in 10.0 mi East 11.5 mph - N/A   Clear
9:55 PM 41.9 °F 36.3 °F 31.1 °F 66% 29.91 in 10.0 mi East 9.2 mph - N/A   Clear
10:15 PM 40.5 °F 34.1 °F 31.1 °F 69% 29.90 in 10.0 mi East 10.4 mph - N/A   Clear
10:35 PM 38.1 °F 32.3 °F 30.9 °F 75% 29.90 in 10.0 mi ESE 8.1 mph - N/A   Clear
10:55 PM 37.0 °F 31.0 °F 30.2 °F 76% 29.91 in 10.0 mi ESE 8.1 mph - N/A   Clear
11:15 PM 36.9 °F 30.7 °F 29.3 °F 74% 29.90 in 10.0 mi ESE 8.1 mph - N/A   Clear
11:35 PM 35.6 °F 29.2 °F 29.1 °F 77% 29.90 in 10.0 mi ESE 8.1 mph - N/A   Clear
11:55 PM 34.0 °F 27.2 °F 28.8 °F 81% 29.90 in 10.0 mi ESE 8.1 mph - N/A   Clear